SCP
1 1 1 1 1 2 1 1 1 1 1 1 1 1 1 1 1 1 1 0 0 0 0 0 0 0 0 0 0 0 0 0 0 0 0 0 0 0 0 0 0 0 0
1 1 1 2 2 2 2 1 1 1 1 1 1 1 1 1 1 1 1 1 0 0 0 0 0 0 0 0 0 0 0 0 0 0 0 0 0 0 0 0 0 0 0
1 1 2 2 2 2 2 2 1 1 1 1 1 1 1 1 1 1 1 1 0 0 0 0 0 0 0 0 0 0 0 0 0 0 0 0 0 0 0 0 0 0 0
1 1 2 2 2 2 2 2 1 1 1 1 1 1 1 1 1 1 1 1 0 0 0 0 0 0 0 0 0 0 0 0 0 0 0 0 0 0 0 0 0 0 0
1 1 2 2 3 2 2 2 1 1 1 1 1 1 1 1 1 1 1 1 0 0 0 0 0 0 0 0 0 0 0 0 0 0 0 0 0 0 0 0 0 0 0
1 1 1 2 3 2 2 2 1 1 1 1 1 1 1 1 1 1 1 1 1 0 0 0 1 1 0 0 0 0 0 0 0 0 0 0 0 0 0 0 0 0 0
1 1 1 2 2 2 2 2 2 1 1 1 1 1 1 1 1 1 1 1 1 1 0 0 1 1 1 0 0 0 0 0 0 0 0 0 0 0 0 0 0 0 0
1 1 1 1 2 2 2 2 2 1 1 1 1 1 1 1 1 1 1 1 1 1 1 1 1 1 1 0 0 0 0 0 0 0 0 0 0 0 0 0 0 0 0
1 1 1 1 1 1 1 2 2 1 1 1 1 1 1 1 1 1 1 1 1 1 1 1 1 1 1 1 0 0 0 0 0 0 0 0 0 0 0 0 0 0 0
2 2 1 1 1 1 1 1 1 1 1 1 1 1 1 1 1 1 1 1 1 1 1 1 1 1 1 1 1 0 0 0 0 0 0 0 0 0 0 0 0 0 0
1 1 1 1 1 1 1 1 1 1 1 1 1 1 1 1 1 1 1 1 1 1 1 1 1 1 1 1 1 0 0 0 0 0 0 0 0 0 0 0 0 0 0
0 1 1 1 1 1 1 1 1 1 1 1 1 1 1 1 1 1 1 1 1 1 1 1 1 1 1 1 0 0 0 0 0 0 0 0 0 0 0 0 0 0 0
0 0 1 1 1 1 1 1 1 1 1 1 1 1 1 1 1 1 1 1 1 1 1 1 1 1 1 0 0 0 0 0 0 0 0 0 0 0 0 1 0 0 0
0 0 0 0 0 0 1 1 1 1 1 1 1 1 1 1 1 1 1 1 1 1 1 1 1 1 1 0 0 0 0 0 0 0 0 0 0 0 0 1 0 0 0
0 0 0 0 0 0 0 1 1 1 1 1 1 1 1 1 1 1 1 0 1 1 1 1 0 0 1 0 0 0 0 0 0 0 0 0 0 0 0 0 1 1 1
0 0 0 0 0 0 0 0 1 1 1 1 1 1 1 1 1 1 1 0 0 1 1 1 0 0 1 0 0 0 0 0 0 0 0 0 0 0 0 0 1 1 1
0 0 0 0 0 0 0 0 0 1 1 1 1 1 1 1 1 1 1 1 1 1 1 1 1 1 1 1 0 0 0 0 0 0 0 0 0 0 0 0 1 1 1
0 0 0 0 0 0 0 0 0 1 1 1 1 1 1 1 1 1 1 1 1 1 1 1 1 1 1 1 0 0 0 0 0 0 0 0 0 0 0 0 0 0 0
0 0 1 1 0 0 0 0 0 1 1 1 1 1 1 1 1 1 1 1 1 1 1 1 1 1 1 1 1 0 0 0 0 0 0 0 0 0 0 0 0 0 0
0 0 1 1 1 0 0 0 0 0 0 0 0 1 1 1 1 1 1 1 1 1 1 1 1 1 1 1 1 0 0 0 0 0 0 0 0 0 0 0 0 0 0
1 1 1 1 1 0 0 0 0 0 0 0 0 0 1 1 1 1 1 1 1 1 1 1 1 1 1 1 1 0 0 0 0 0 0 0 0 0 0 0 0 0 0
1 1 0 0 0 1 1 1 1 0 0 0 0 0 1 1 1 1 1 1 1 1 1 1 1 1 1 1 0 0 0 0 0 0 0 0 0 0 0 0 0 0 0
0 0 0 0 0 1 1 1 1 1 0 0 0 0 0 1 1 1 1 1 1 1 1 1 1 1 1 1 0 0 0 0 0 0 0 0 0 0 0 0 0 0 0
0 0 0 0 0 1 1 1 1 1 0 0 0 0 0 1 1 1 2 2 2 2 1 1 1 1 1 1 0 0 0 0 0 0 0 0 0 0 0 0 0 0 0
0 0 0 0 0 1 1 1 0 0 0 0 0 0 0 1 1 1 1 2 2 2 2 1 1 1 1 1 0 0 0 0 0 0 0 0 0 0 0 0 0 0 0
0 0 0 0 0 0 1 0 0 0 0 0 0 0 0 1 1 1 1 1 2 2 2 2 1 1 1 1 0 0 0 0 0 0 0 0 0 0 0 0 0 0 0
Wind_Speed
1 3 7 10 11 11 11 11 11 11 11 11 11 12 12 12 12 12 12 11 11 11 11 11 11 11 12 12 12 12 12 13 13 12 11 10 11 12 12 11 10 7 12
3 3 7 9 10 11 10 11 11 10 10 11 11 11 11 11 11 11 10 10 10 10 10 10 11 11 11 11 11 11 11 11 11 11 9 8 9 11 11 11 10 7 11
3 3 6 8 9 10 10 10 10 10 10 10 10 10 11 11 11 10 10 10 10 9 9 9 10 11 11 10 10 10 10 9 9 8 7 4 5 10 10 10 10 10 10
3 3 4 7 8 9 10 9 9 10 10 10 10 10 10 10 10 10 10 10 9 9 9 9 10 10 10 9 9 8 8 8 7 6 3 2 2 8 9 9 9 9 9
3 2 3 6 7 8 9 9 9 9 10 10 10 10 10 10 9 9 9 9 8 8 9 9 9 9 9 8 7 7 7 7 6 5 3 2 2 6 7 8 7 8 7
3 2 2 5 6 7 7 8 8 8 9 10 10 10 10 9 9 9 9 9 8 8 9 9 9 9 8 7 6 6 6 6 5 3 2 2 2 5 6 6 6 6 6
2 1 2 3 4 6 6 7 7 8 8 9 10 10 10 10 9 9 9 9 9 9 9 9 9 9 8 7 6 5 5 4 3 3 2 2 3 6 6 5 5 5 5
2 2 1 1 2 3 5 5 6 7 8 8 9 10 10 10 10 10 9 10 10 10 10 9 9 9 8 7 6 4 3 3 3 3 2 2 4 6 6 5 4 4 4
4 3 2 1 0 1 3 3 4 6 7 7 8 8 9 9 9 10 10 10 10 10 10 10 10 9 9 7 6 3 2 3 2 1 2 2 5 7 6 5 4 3 3
4 3 3 2 1 1 1 3 3 4 5 6 7 7 7 8 8 9 9 10 10 10 10 10 10 10 9 7 6 4 3 2 2 2 2 3 7 7 7 6 4 3 3
4 3 2 2 2 1 1 2 3 3 4 5 5 7 6 4 5 6 8 9 10 10 10 11 10 9 8 6 6 5 3 1 2 2 2 5 7 8 7 6 5 4 4
4 4 2 2 2 2 2 1 1 2 2 3 3 4 3 4 4 6 8 10 10 10 10 11 11 9 6 3 4 4 1 2 2 2 3 7 8 8 8 7 6 6 5
3 3 3 3 2 2 2 1 1 1 2 2 3 4 3 3 3 4 3 5 6 7 5 6 6 4 4 3 3 3 3 3 2 3 4 8 9 9 9 8 8 7 6
3 3 3 3 2 2 2 2 2 2 2 2 3 4 3 3 3 3 3 4 4 3 4 4 3 4 5 5 5 5 4 3 3 3 4 9 9 10 9 9 8 8 7
4 4 4 3 3 3 2 2 2 2 3 3 4 4 4 4 4 4 4 4 4 4 5 4 4 5 5 5 5 6 5 5 4 4 3 8 9 9 9 9 9 8 8
4 5 4 4 3 3 3 3 3 3 3 3 3 5 5 5 5 5 5 5 5 5 5 5 6 6 5 4 5 6 5 5 5 4 4 5 8 9 9 10 9 9 9
4 5 5 5 4 3 4 4 3 3 3 3 3 4 5 5 6 5 5 5 5 6 6 5 5 4 4 4 5 5 5 5 5 5 5 4 4 8 9 10 10 9 9
4 5 5 5 4 4 4 4 3 3 3 3 3 3 5 6 6 5 5 5 6 5 5 5 5 5 5 4 4 4 4 4 5 5 4 4 4 3 6 8 8 8 9
4 5 5 5 5 5 5 4 4 3 3 3 3 3 4 5 6 5 5 5 6 5 5 6 5 5 5 5 4 4 3 4 4 4 5 5 5 4 4 6 7 7 7
4 4 5 5 5 5 4 3 3 3 3 2 2 3 4 4 5 5 5 5 6 5 5 5 5 5 4 4 4 4 3 3 3 4 5 4 4 5 5 4 4 5 8
5 5 5 5 5 3 2 2 2 3 2 2 2 3 3 4 4 5 4 4 5 5 6 6 4 5 4 3 2 1 2 3 4 3 3 3 4 4 4 4 3 3 3
5 5 5 6 5 4 3 3 2 2 2 2 2 2 2 3 3 4 4 4 5 5 5 5 4 3 3 4 3 2 1 2 3 4 3 4 4 3 3 4 4 4 3
5 5 6 6 5 5 4 2 1 1 1 1 1 1 2 2 2 2 3 3 4 4 4 5 5 6 4 4 3 4 3 4 2 2 3 3 3 3 3 3 4 5 4
6 6 6 5 5 4 3 2 2 2 2 2 1 1 2 2 1 1 1 1 2 2 3 4 4 4 5 4 2 2 2 3 3 2 2 2 3 4 4 3 4 4 4
5 5 5 5 4 4 3 2 2 2 1 1 1 1 1 2 1 1 0 1 1 1 2 2 2 3 3 4 3 2 2 1 2 2 3 2 2 3 4 4 4 4 4
5 5 5 4 4 3 3 2 1 1 1 0 0 1 1 1 1 1 1 0 1 1 1 2 2 3 2 3 2 2 2 2 3 3 3 3 3 3 3 4 4 4 3
Wind_Direction
222 195 156 146 145 145 144 143 138 136 133 130 129 127 125 123 122 122 123 123 121 119 115 114 113 111 106 102 101 99 97 94 90 85 78 77 85 89 88 80 77 70 77
192 180 153 148 147 145 146 147 144 142 141 140 137 135 134 132 131 130 130 131 129 126 120 119 119 115 113 109 108 106 104 100 96 88 76 71 82 91 91 87 84 82 79
140 156 150 146 147 147 145 146 151 151 151 150 147 144 143 142 141 139 138 137 136 132 125 122 125 122 119 117 115 112 108 106 103 93 83 71 85 93 94 90 86 83 81
119 129 144 145 146 149 150 151 153 159 161 159 155 153 152 151 151 151 148 143 143 138 131 127 128 129 127 126 123 117 111 109 105 96 84 68 81 98 96 94 91 87 85
88 114 134 144 148 150 153 156 160 165 170 168 164 163 163 161 160 159 155 150 147 143 139 138 136 137 136 134 130 124 117 112 99 92 98 82 80 102 98 97 93 90 87
66 85 130 137 146 151 157 160 168 173 175 175 172 170 171 171 169 165 158 153 149 149 150 150 147 146 145 144 140 130 123 114 97 101 114 122 123 114 108 104 99 95 89
48 44 129 133 143 154 161 171 174 180 182 181 180 179 180 179 178 171 163 159 159 160 162 163 162 159 157 155 151 139 126 114 112 126 142 153 153 135 126 119 112 105 95
57 32 78 114 133 161 170 180 188 192 192 190 188 188 187 185 183 178 172 169 170 171 172 172 171 167 167 167 166 157 133 122 114 140 159 177 168 149 137 129 124 116 106
42 36 21 28 102 182 187 194 201 206 204 202 197 195 193 190 187 184 180 179 180 180 179 178 177 176 178 180 181 181 160 139 128 159 184 195 179 164 151 146 142 141 133
31 24 9 7 10 332 230 206 207 214 214 211 206 203 198 196 195 191 187 187 188 188 186 184 184 186 187 190 191 195 191 156 157 187 201 211 194 178 171 169 173 177 176
11 2 358 354 343 328 275 236 218 220 222 217 210 206 201 199 197 195 194 192 193 194 192 191 192 191 191 196 200 204 200 179 185 202 203 215 200 192 186 184 189 194 199
348 342 345 327 313 302 281 284 252 233 228 221 212 205 201 196 198 197 198 197 196 197 197 197 196 193 188 193 209 206 197 201 206 214 214 216 206 200 196 196 200 206 212
319 330 337 321 299 291 286 271 258 248 233 228 219 210 201 195 197 196 188 195 197 196 196 200 197 192 189 192 202 206 208 209 212 222 223 218 212 207 204 205 208 214 219
319 315 319 319 313 292 279 267 244 243 235 227 225 215 197 195 198 193 193 191 189 189 191 193 192 195 198 204 208 213 216 213 212 218 225 219 216 211 210 210 213 217 223
308 307 305 306 303 292 283 271 259 241 240 235 224 216 204 199 202 200 198 194 195 191 191 194 199 201 205 211 216 214 218 220 217 213 220 217 215 214 213 217 219 221 227
302 300 300 300 291 286 279 271 259 247 243 239 230 220 208 203 202 199 200 198 199 198 198 197 200 202 208 209 219 218 217 216 216 211 211 215 218 217 216 221 223 227 230
289 291 293 291 291 288 280 271 269 255 248 239 237 228 215 209 204 201 199 201 204 200 199 198 202 198 205 210 219 222 219 218 217 214 209 207 216 222 220 222 225 230 233
284 288 288 294 291 282 277 273 268 259 252 245 238 232 224 216 210 205 202 204 202 198 195 197 198 198 207 209 216 224 222 218 221 216 209 207 206 215 224 225 229 232 236
286 288 290 292 288 282 276 270 264 260 254 252 245 234 229 222 213 208 210 208 198 197 199 202 199 197 203 210 217 222 222 220 219 214 211 210 207 206 212 225 226 233 239
302 300 297 299 294 288 279 275 271 268 263 259 250 245 238 231 223 211 215 210 199 196 202 202 200 201 201 204 215 224 227 225 217 213 214 209 206 206 208 215 218 237 242
336 325 313 308 302 299 286 271 260 259 261 264 255 250 245 238 229 218 220 211 202 201 202 198 196 198 204 176 166 233 263 241 227 221 213 208 212 211 207 215 215 217 238
332 326 318 310 306 299 278 255 237 236 240 245 263 274 262 247 235 228 216 210 203 203 200 196 191 192 194 177 163 160 236 273 250 229 216 216 219 209 216 224 220 220 228
328 322 315 308 307 303 297 276 269 265 294 289 300 308 299 278 260 242 229 214 203 201 204 199 194 195 195 192 176 169 177 217 246 252 223 218 215 212 224 231 233 233 231
318 318 310 309 311 311 306 272 231 223 232 249 261 285 317 311 310 296 247 218 208 202 199 201 198 198 185 189 197 202 188 167 185 247 269 232 223 222 227 239 240 237 232
320 319 312 312 315 318 317 295 249 242 232 244 292 342 332 326 330 327 310 201 199 201 189 185 197 190 192 188 185 186 200 206 197 197 243 252 249 234 230 233 234 234 232
333 330 328 324 323 327 328 327 313 242 211 161 305 300 322 313 319 337 10 145 196 187 184 183 183 181 191 186 184 187 185 188 198 205 226 237 247 246 238 231 228 233 233